Regional Weather Roundup
Issued by NWS Wakefield, VA

Home | Current Version | Previous Version | Graphics & Text | Print | Product List | Glossary On
Versions: 1 2 3 4 5 6 7 8 9 10 11 12 13 14 15 16 17 18 19 20 21 22 23 24 25 26 27 28 29 30 31 32 33 34 35 36 37 38 39 40 41 42 43 44 45 46 47
000
ASUS41 KAKQ 242210
RWRAKQ

REGIONAL WEATHER ROUNDUP
NATIONAL WEATHER SERVICE WAKEFIELD VA
500 PM EST WED DEC 24 2014

Note: "fair" indicates few or no clouds below 12,000 feet with no
significant weather and/or obstructions to visibility. * = Denotes
station may not report precipitation (e.g., rain,snow,etc.),
thunder or fog.

VAZ042-051-052>054-056-242300-
NORTHERN VIRGINIA

CITY           SKY/WX    TMP DP  RH WIND       PRES   REMARKS
WASH NATIONAL  CLOUDY    50  46  87 S3        29.63F FOG
DULLES         FOG       48  48 100 S5        29.63F VSB<1/4
FORT BELVOIR   CLOUDY    49  48  97 CALM      29.65S
QUANTICO       CLOUDY    48  46  93 CALM      29.64F FOG
FREDERICKSBRG* CLOUDY    52  52 100 S7        29.64S
STAFFORD*      CLOUDY    51  32  48 CALM      29.68S
WARRENTON      CLOUDY    51  51 100 CALM      29.63R
CULPEPER*      CLOUDY    52  50  93 CALM      29.64F
MANASSAS*      NOT AVBL
LEESBURG*      FOG       48  48 100 S5        29.62F VSB 1/2
WINCHESTER     CLOUDY    46  43  87 SE3       29.59F FOG
FRONT ROYAL*   CLOUDY    45  45 100 CALM      29.59F
LURAY*         CLOUDY    46  46 100 CALM      29.59F FOG
$$

VAZ048-049-060>072-079>083-242300-
CENTRAL AND SOUTH CENTRAL VIRGINIA

CITY           SKY/WX    TMP DP  RH WIND       PRES   REMARKS
RICHMOND       FOG       56  54  93 CALM      29.66F VSB 1/4
CHESTERFIELD*  CLOUDY    55  46  71 W3        29.68S VSB 1/4
PETERSBURG*    FOG       60  59  97 CALM      29.67F VSB 1/4
HANOVER        CLOUDY    52  51  97 CALM      29.67F FOG
TAPPAHANNOCK*  FOG       57  56  95 CALM      29.65F VSB 1
QUINTON*       CLOUDY    56  56 100 SE6       29.64F VSB 1/4
CHARLOTTSVILLE CLOUDY    49  48  97 CALM      29.62F
GORDONSVILLE*  CLOUDY    49  48  99 CALM      29.62F
ORANGE*        CLOUDY    52  50  93 S5        29.64F
LOUISA*        CLOUDY    52  50  93 S3        29.62F
BUMPASS*       CLOUDY    49  49  99 CALM      29.64F
FARMVILLE*     CLOUDY    51  51 100 CALM      29.64F FOG
CREWE*         CLOUDY    52  51  95 CALM      29.66R VSB<1/4
FORT PICKETT*  CLOUDY    55  54  97 CALM      29.65S VSB<1/4
CHASE CITY*    CLOUDY    54  54 100 SE3       29.65F VSB<1/4
CLARKSVILLE*   CLOUDY    50  50 100 CALM      29.64F VSB 1/4
SOUTH HILL*    CLOUDY    63  62  97 S10       29.71F
LAWRENCEVILLE* CLOUDY    62  62 100 SE3       29.66F
EMPORIA*       CLOUDY    61  61 100 SE6       29.70S
$$

VAZ088>098-242300-
SOUTHEAST VIRGINIA

CITY           SKY/WX    TMP DP  RH WIND       PRES   REMARKS
NORFOLK        CLOUDY    65  62  90 SW10      29.71F
VIRGINIA BEACH LGT RAIN  67  64  90 SW6       29.71R
NORFOLK NAVAL  CLOUDY    67  62  84 S5        29.71F
WEST POINT*    CLOUDY    65  63  93 SE3       29.67F
SALUDA*        FAIR      63  62  96 S10G16    29.66F
NEWPORT NEWS   CLOUDY    66  62  87 S7        29.68F
LANGLEY AFB    CLOUDY    63  63  99 S5        29.69S
FORT EUSTIS    CLOUDY    63 N/A N/A S6        29.67F
WILLIAMSBURG*  CLOUDY    64  63  94 S9        29.68F
HR EXEC AP*    CLOUDY    64  63  94 S7        29.73R
FRANKLIN*      CLOUDY    63 N/A N/A S6        29.70F
WAKEFIELD      CLOUDY    63  61  93 S6        29.69S
$$

VAZ020-022-025-037-045-242300-
WEST CENTRAL AND SOUTHWEST VIRGINIA

CITY           SKY/WX    TMP DP  RH WIND       PRES   REMARKS
STAUNTON*      CLOUDY    54  51  91 E3        29.62F
WAYNESBORO*    CLOUDY    56  54  90 CALM      29.60F
HOT SPRINGS VA HVY RAIN  51  51 100 S13G22    29.61F VSB<1/4
LYNCHBURG      FOG       48  48 100 S3        29.66F VSB 1
DANVILLE       FOG       49  48  97 CALM      29.67S VSB 1/4
SOUTH BOSTON*  CLOUDY    49  48  95 CALM      29.67S VSB 1/4
MARTINSVILLE   FOG       49  49 100 CALM      29.69S VSB 1
ROANOKE        FOG       48  47  96 SE7       29.66F VSB 1
BLACKSBURG     CLOUDY    50  49  98 S3        29.65F
DUBLIN*        CLOUDY    57  57 100 S5        29.61F
MARION*        CLOUDY    61  54  76 S5G20     29.61S
HILLSVILLE*    CLOUDY    51  51  99 S7        29.62F FOG
RICHLANDS*     CLOUDY    61  51  70 S9        29.53F
WISE*          CLOUDY    59  55  88 S14       29.52F
ABINGDON*      CLOUDY    63  56  80 SW3       29.54F
$$

MDZ021>025-VAZ099-100-242300-
SOUTHERN MARYLAND AND THE DELMARVA PENINSULA

CITY           SKY/WX    TMP DP  RH WIND       PRES   REMARKS
PATUXENT RIVER FOG       56  54  93 W9        29.66S VSB 1/2
BAY BRIDGE APT   N/A     52  52 100 S5        29.66F FOG
LEONARDTOWN    CLOUDY    54  52  94 W6        29.68S
DOVER          CLOUDY    64  64 100 S9        29.63F
GEORGETOWN     LGT RAIN  66  64  93 S8        29.67F
EASTON         RAIN      63  63 100 SW6       29.69
CAMBRIDGE      CLOUDY    59  55  88 SE8       29.64F VSB 1/2
SALISBURY      LGT RAIN  67  64  90 S9        29.67F
OCEAN CITY     LGT RAIN  59  59 100 SW15G23   29.71F FOG
WALLOPS ISLAND RAIN      62  62 100 SW10G23   29.71S FOG
ACCOMACK*      LGT RAIN  63  61  94 S6        29.69F
$$

NCZ012>017-030>032-242300-
NORTH CENTRAL AND EASTERN NORTH CAROLINA

CITY           SKY/WX    TMP DP  RH WIND       PRES   REMARKS
ROANOKE RAPIDS CLOUDY    61  61 100 S5        29.70R
RALEIGH        LGT RAIN  66  62  87 SW14G23   29.69F
ELIZABETH CITY CLOUDY    72  66  83 S15G23    29.73F
AHOSKIE*       CLOUDY    62  62  97 CALM      29.71F
EDENTON*       CLOUDY    65  65  99 S9        29.74S
CURRITUCK*     CLOUDY    68  66  93 S10       29.74F
KILL DEVIL HLS RAIN      66  66 100 S10G16    29.76F
MANTEO         RAIN      61  61 100 S16       29.79S
CAPE HATTERAS  CLOUDY    65  64  97 S14       29.81S FOG
TARBORO*       CLOUDY    69  66  89 S6        29.72S
GOLDSBORO      MOCLDY    67  67  99 S10       29.72S
WASHINGTON     CLOUDY    69  66  89 SW9G16    29.76R
GREENVILLE     MOCLDY    68  64  88 SW9       29.77R
NEW BERN       LGT RAIN  71  65  81 SW13G22   29.80R
WILMINGTON     LGT RAIN  68  65  90 S9        29.80F FOG
$$

VAZ048-242300-
ELSEWHERE

CITY           SKY/WX    TMP DP  RH WIND       PRES   REMARKS
HARRISBURG PA  FOG       47  46  97 CALM      29.63F VSB 1/2
BALTIMORE      CLOUDY    52  51  97 CALM      29.63F FOG
ANNAPOLIS      FOG       45  44  97 SE7       29.63F VSB 1/4
ANDREWS AFB    CLOUDY    52  52 100 S7        29.64F
PHILADELPHIA   LGT RAIN  63  61  93 SW14      29.65S
HENDERSON NC   CLOUDY    62  61  95 S9        29.67F
GREENSBORO     FOG       49  49 100 CALM      29.66F VSB 1/8
ROCKY MOUNT    CLOUDY    68  65  90 S9        29.71S
$$

VAZ100-242300-
MARINE

STATION/POSITION TIME  TEMP    WIND        PRES    WAVE   SWELL
                       AIR SEA DIR/SP/G            HT/PER HT/PER
                 (UTC) (F)     (DEG/KT/KT) (MB)    (FT/S) (FT/S)
CAPE MAY NJ      2200   57 46  170/ 12/ 18 1004.6S
LEWES DE         2200   65 43  190/  7/ 11 1004.7S
15NM E FENWICK I 2200   54 46              1005.1F   5/ 5
OCEAN-CITY-INLET 2200   57 45  230/ 13/ 16 1005.4F
WACHAPREAGUE VA  2200   59 49  220/ 12/ 16 1005.8F
THOMAS POINT MD  2200   51 42  170/ 10/ 10 1004.5F
GOOSES REEF MD   2200   53     VRB 10/ 12  1003.4F
COVE POINT MD    2200   55     340/  5/  7 1004.1S
SOLOMONS ISLAND  2200      43                N/A
BISHOPS HEAD MD  2200   49 43  160/  9/  9 1003.6F
PINEY POINT MD   2200          350/ 10/ 10   N/A
POTOMAC MD       2200   52     150/  2/  4 1003.3S
CAMBRIDGE MD     2200   60 40  210/  4/  6 1003.7F
LEWISETTA VA     2200      42  130/  3/  4 1003.3F
RAPPAHANNOCK LGT 2200          180/ 10/ 10 1005.4F
STINGRAY PT      2200   53     180/  8/ 10 1005.3F
YORK RVR RNG VA  2200   62     200/ 11/ 11 1004.4F
YORKTOWN VA      2200   63 45  180/  6/  7 1004.6F
JAMESTOWN VA     2200   57     160/  6/  6   N/A
DOMINION TERM VA 2200   59     200/  5/  6 1005.5S
KIPTOPEKE VA     2200      50  140/  5/  7   N/A
CHES BAY BRIDGE  2200   62 46  250/  6/  8 1005.3F
CAPE HENRY VA    2200   65     260/  3/  4 1004.7F
CHESAPEAKE LGHT  2100   61     180/ 29/ 33 1005.9F
WILLOUBY STN VA  2200   62     210/  7/  7 1005.9F
S CRANEY ISL VA  2200          180/  6/  8 1005.6S
CAPE HENRY BUOY  2200      48                N/A     5/ 5
1ST LANDING BUOY 2200   57     270/  6/ 10 1005.9F
CAPE CHARLES BUO 2200      47                N/A     5/ 5
64NM E OF VA BCH 2200   60 53  180/ 17/ 21 1007.9F   6/ 7
DUCK PIER NC     2200   65 50  190/ 21/ 26 1006.4F
44100 DUCK FRF   2200      50                N/A     5/ 7
44056 DUCK FRF   2200      49                N/A     5/ 7   2/11
OREGON INLET NC  2200   60 51  160/ 13/ 18 1008.5F
HATTERAS NC      2200   67 55  180/  7/ 16 1009.5F
DIAMOND SHLS NC  2100   76                 1009.5R   8/ 7
$$


USA.gov is the U.S. government's official web portal to all federal, state and local government web resources and services.